[[{"header":{"parameterUnit":"m.s-1","parameterCategory":1,"la1":30.2992,"la2":30.254,"lo1":-89.0895,"lo2":-89.0443,"dy":0.0025,"dx":0.0025,"nx":19,"ny":19,"refTime":"2026-05-09T21:00:00:Z","depth":0,"parameterNumber":2,"parameterNumberName":"U-component_of_WINDS"},"data":[0,0,0,-0.3356,-0.3356,-0.3362,-0.3362,-0.3376,-0.3377,0,0,0,0,0,0,0,0,0,0,0,-0.3358,-0.3358,-0.3356,-0.3356,-0.3362,-0.3362,-0.3376,-0.3377,0,0,0,0,0,0,0,0,0,0,0,-0.3357,-0.3358,-0.3358,-0.3356,-0.3362,-0.3362,-0.3376,-0.337,0,0,0,0,0,0,0,0,0,0,-0.3363,-0.3367,-0.3358,-0.3358,-0.3356,-0.3362,-0.3362,-0.3369,-0.337,-0.3376,0,-0.3382,0,-0.338,-0.3378,-0.3378,0,0,0,-0.3354,-0.3367,-0.3365,-0.3358,-0.3356,-0.3362,-0.3359,-0.337,-0.3371,-0.3377,-0.3383,-0.3383,-0.338,-0.3378,-0.3378,-0.3422,-0.3422,0,0,-0.3353,-0.3361,-0.3365,-0.3366,-0.3365,-0.3359,-0.3359,-0.337,-0.3376,-0.3383,-0.3383,-0.338,-0.3378,-0.3378,-0.3422,-0.3422,0,0,0,-0.3354,-0.3361,-0.3359,-0.3366,-0.3366,-0.3359,-0.3359,-0.3376,-0.3374,-0.3383,-0.338,-0.3378,-0.3379,-0.3421,-0.3422,-0.3445,0,0,0,-0.3354,-0.3361,-0.3359,-0.3363,-0.3366,-0.3371,-0.3365,-0.3374,-0.3375,-0.338,-0.3378,-0.3379,-0.3421,-0.3422,-0.3443,-0.3455,0,0,0,-0.3356,-0.3361,-0.3363,-0.3364,-0.3366,-0.3371,-0.337,-0.3374,-0.3373,-0.3378,-0.3379,-0.3421,-0.3421,-0.3442,-0.3452,-0.3468,0,0,0,-0.3361,-0.3384,-0.3364,-0.3388,-0.3366,-0.3385,-0.337,-0.3383,-0.339,-0.3378,-0.3421,-0.3422,-0.3442,-0.3451,-0.3467,-0.3483,-0.349,0,0,-0.3394,-0.3388,-0.3402,-0.3384,-0.3408,-0.3383,-0.341,-0.341,-0.3404,-0.3416,-0.3417,-0.3444,-0.3452,-0.3468,-0.3528,-0.3534,0,0,0,-0.3415,-0.3425,-0.343,-0.3436,-0.3436,-0.3437,-0.3432,-0.3432,-0.3442,-0.3412,-0.3453,-0.3458,-0.3467,-0.3474,-0.3479,-0.3487,-0.3425,-0.3425,-0.3425,-0.3473,-0.3463,-0.3486,-0.3477,-0.3484,-0.3478,-0.3483,-0.3481,-0.347,-0.348,-0.3484,-0.3522,-0.3531,-0.3534,-0.3542,-0.3492,-0.3492,-0.3492,-0.3492,-0.3521,-0.3534,-0.3518,-0.3534,-0.3524,-0.3538,-0.3533,-0.3524,-0.3536,-0.3518,-0.3526,-0.3507,-0.3541,-0.3547,-0.3494,-0.3493,-0.3493,-0.3493,-0.3493,-0.3558,-0.3562,-0.3561,-0.357,-0.3578,-0.3568,-0.358,-0.3571,-0.3562,-0.3569,-0.3572,-0.3572,-0.357,-0.3571,-0.3571,-0.3571,-0.3572,-0.3572,-0.3572,-0.3597,-0.3595,-0.3605,-0.3607,-0.361,-0.3613,-0.3607,-0.361,-0.3611,-0.3603,-0.3603,-0.3591,-0.3546,-0.3535,-0.3574,-0.3573,-0.3573,-0.3573,-0.3573,-0.3649,-0.3636,-0.3652,-0.3655,-0.3656,-0.3665,-0.3652,-0.3659,-0.366,-0.3666,-0.3652,-0.3621,-0.3614,-0.361,-0.3601,-0.3654,-0.3654,-0.3654,-0.3654,-0.368,-0.3676,-0.369,-0.3696,-0.37,-0.3691,-0.371,-0.3706,-0.3699,-0.3699,-0.369,-0.3677,-0.3674,-0.3669,-0.3664,-0.3655,-0.3721,-0.3721,-0.3721,-0.3712,-0.3707,-0.3726,-0.3719,-0.3719,-0.3719,-0.3737,-0.3745,-0.3734,-0.3724,-0.3699,-0.3697,-0.3675,-0.3669,-0.3658,-0.365,-0.3634,0,0]},{"header":{"parameterUnit":"m.s-1","parameterCategory":1,"la1":30.2992,"la2":30.254,"lo1":-89.0895,"lo2":-89.0443,"dy":0.0025,"dx":0.0025,"nx":19,"ny":19,"refTime":"2026-05-09T21:00:00:Z","depth":0,"parameterNumber":3,"parameterNumberName":"V-component_of_WINDS"},"data":[0,0,0,1.5067,1.507,1.5238,1.5239,1.5438,1.544,0,0,0,0,0,0,0,0,0,0,0,1.5006,1.5007,1.5067,1.5071,1.5238,1.5239,1.5438,1.544,0,0,0,0,0,0,0,0,0,0,0,1.5006,1.5007,1.5008,1.5071,1.5238,1.5239,1.5437,1.5317,0,0,0,0,0,0,0,0,0,0,1.5156,1.5089,1.5007,1.5008,1.5072,1.5238,1.5239,1.5311,1.5324,1.5355,0,1.5377,0,1.5412,1.5452,1.5452,0,0,0,1.5079,1.5078,1.5133,1.5008,1.5074,1.5238,1.5165,1.5319,1.5333,1.5372,1.5381,1.5388,1.5415,1.5453,1.5454,1.5599,1.5599,0,0,1.507,1.5031,1.5123,1.5142,1.5114,1.516,1.517,1.5328,1.5335,1.5381,1.5393,1.5418,1.5454,1.5455,1.5599,1.5599,0,0,0,1.5038,1.5024,1.5076,1.5134,1.5165,1.5164,1.5177,1.5328,1.5348,1.5396,1.542,1.5455,1.5457,1.5599,1.5599,1.5575,0,0,0,1.5033,1.5005,1.5071,1.5049,1.5162,1.5248,1.5173,1.5337,1.5356,1.5419,1.5455,1.5459,1.5598,1.5599,1.5575,1.557,0,0,0,1.4999,1.5001,1.5022,1.5046,1.5117,1.5247,1.5276,1.5342,1.5371,1.5452,1.546,1.5598,1.5599,1.5575,1.5571,1.5598,0,0,0,1.4953,1.4997,1.5021,1.5081,1.5115,1.523,1.5276,1.5363,1.543,1.5456,1.5598,1.5599,1.5575,1.5571,1.5598,1.5615,1.5618,0,0,1.4987,1.5,1.5039,1.5064,1.5165,1.5207,1.5306,1.5404,1.5448,1.5547,1.5551,1.5575,1.5571,1.5598,1.5647,1.5649,0,0,0,1.5037,1.5064,1.5099,1.516,1.5236,1.5302,1.539,1.5427,1.5513,1.549,1.5593,1.5592,1.561,1.562,1.5622,1.564,1.5602,1.5601,1.5601,1.5029,1.5083,1.5151,1.5226,1.5285,1.5376,1.5429,1.5495,1.5532,1.5555,1.5585,1.5608,1.5618,1.562,1.5638,1.5598,1.5597,1.5597,1.5597,1.5086,1.5134,1.5183,1.5266,1.5323,1.5395,1.5484,1.5508,1.5584,1.5589,1.5608,1.561,1.562,1.564,1.5596,1.5596,1.5596,1.5597,1.5597,1.5089,1.5121,1.5165,1.5261,1.5329,1.5403,1.5474,1.5523,1.5571,1.5589,1.5627,1.5628,1.5636,1.5603,1.5603,1.5604,1.5604,1.5604,1.5604,1.5074,1.5124,1.5177,1.5263,1.531,1.5378,1.5471,1.5519,1.5585,1.5616,1.5617,1.5652,1.5611,1.56,1.5605,1.5605,1.5605,1.5605,1.5605,1.5113,1.5112,1.5194,1.5241,1.5347,1.5412,1.5475,1.5569,1.5616,1.565,1.5682,1.5643,1.566,1.5659,1.565,1.5669,1.5669,1.5669,1.5669,1.5116,1.5129,1.5225,1.5297,1.5374,1.5439,1.5532,1.5605,1.5681,1.5714,1.5719,1.5711,1.5708,1.5727,1.5725,1.5718,1.5753,1.5753,1.5753,1.5144,1.5167,1.5236,1.5309,1.5396,1.547,1.5559,1.5642,1.5728,1.5758,1.5742,1.5738,1.5727,1.572,1.5749,1.5744,1.5733,0,0]}]]